Sarasota, FL

3:58 PM EST on December 15, 2019 (GMT -0500)
Sarasota-bradenton

Weather History for KSRQ - October, 2019

Change the Weather History Date:

Thursday, October 10, 2019

  Actual Average Record
Temperature  
Mean Temperature 84 °F 78 °F  
Max Temperature 93 °F 86 °F 93 °F (1962)
Min Temperature 73 °F 70 °F 50 °F (1920)
Degree Days  
Heating Degree Days 0 0  
Month to date heating degree days 0 0  
Since 1 July heating degree days 0 0  
Cooling Degree Days 18 13  
Month to date cooling degree days 188 139  
Year to date cooling degree days 3645 2928  
Growing Degree Days 34 (Base 50)    
Moisture  
Dew Point 71 °F    
Average Humidity 76    
Maximum Humidity 94    
Minimum Humidity 52    
Precipitation  
Precipitation T in 0.13 in 1.60 in (1971)
Month to date precipitation 0.34 1.27  
Year to date precipitation 43.72 46.70  
Sea Level Pressure  
Sea Level Pressure 29.95 in    
Wind  
Wind Speed 7 mph ()    
Max Wind Speed 22 mph    
Max Gust Speed 28 mph    
Visibility 10.0 miles    
Events Rain    
T = Trace of Precipitation, MM = Missing Value Source: Averaged Metar Reports

Daily Weather History Graph

Daily Weather History Graph

Search for Another Location

Airport or City:

Astronomy

Oct. 10, 2019 Rise Set
Actual Time 7:27 AM EDT 7:06 PM EDT
Civil Twilight 7:03 AM EDT 7:30 PM EDT
Nautical Twilight 6:36 AM EDT 7:57 PM EDT
Astronomical Twilight 6:09 AM EDT 8:24 PM EDT
Moon 5:45 PM EDT (10/10) 4:34 AM EDT (10/10)
Length of Visible Light 12h 26m
Length of Day
11h 39m
Waxing Gibbous, 91% of the Moon is Illuminated
Oct 10
Waxing Gibbous
Oct 13
Full
Oct 21
Last Quarter
Oct 27
New
Nov 4
First Quarter

Hourly Weather History & Observations

Time (EDT) Temp. Heat Index Dew Point Humidity Pressure Visibility Wind Dir Wind Speed Gust Speed Precip Events Conditions
12:53 AM 75.9 °F - 73.0 °F 91% 29.97 in 10.0 mi ENE 8.1 mph - N/A   Partly Cloudy
1:53 AM 75.0 °F - 72.0 °F 90% 29.96 in 10.0 mi NE 6.9 mph - N/A   Clear
2:53 AM 75.0 °F - 72.0 °F 90% 29.95 in 10.0 mi NE 5.8 mph - N/A   Clear
3:53 AM 73.9 °F - 71.1 °F 91% 29.94 in 10.0 mi NE 4.6 mph - N/A   Clear
4:31 AM 73.9 °F - 71.1 °F 91% 29.94 in 10.0 mi NE 4.6 mph - N/A   Scattered Clouds
4:42 AM 73.9 °F - 71.1 °F 91% 29.94 in 10.0 mi NE 5.8 mph - N/A   Mostly Cloudy
4:53 AM 73.9 °F - 71.1 °F 91% 29.94 in 10.0 mi NE 5.8 mph - N/A   Mostly Cloudy
5:07 AM 73.9 °F - 71.1 °F 91% 29.94 in 10.0 mi NE 4.6 mph - N/A   Scattered Clouds
5:53 AM 73.9 °F - 71.1 °F 91% 29.95 in 10.0 mi NE 4.6 mph - N/A   Clear
6:53 AM 73.9 °F - 71.1 °F 91% 29.96 in 10.0 mi NE 4.6 mph - N/A   Partly Cloudy
7:53 AM 73.9 °F - 71.1 °F 91% 29.97 in 10.0 mi NNE 4.6 mph - N/A   Clear
8:53 AM 78.1 °F - 72.0 °F 81% 29.99 in 10.0 mi NE 6.9 mph - N/A   Clear
9:53 AM 81.0 °F 85.8 °F 73.0 °F 77% 30.00 in 10.0 mi ENE 8.1 mph - N/A   Clear
10:53 AM 84.0 °F 90.2 °F 73.0 °F 69% 29.99 in 10.0 mi ENE 10.4 mph - N/A   Clear
11:53 AM 86.0 °F 93.0 °F 73.0 °F 65% 29.98 in 10.0 mi ENE 12.7 mph 18.4 mph N/A   Scattered Clouds
12:53 PM 87.1 °F 93.6 °F 72.0 °F 61% 29.96 in 10.0 mi ENE 10.4 mph - N/A   Mostly Cloudy
1:53 PM 89.1 °F 96.0 °F 72.0 °F 57% 29.94 in 10.0 mi NE 12.7 mph - N/A   Partly Cloudy
2:53 PM 91.0 °F 97.6 °F 71.1 °F 52% 29.91 in 10.0 mi East 11.5 mph 19.6 mph N/A   Partly Cloudy
3:53 PM 91.0 °F 97.6 °F 71.1 °F 52% 29.90 in 10.0 mi NE 11.5 mph - N/A   Scattered Clouds
4:53 PM 88.0 °F 92.9 °F 70.0 °F 55% 29.90 in 10.0 mi ENE 9.2 mph - N/A   Mostly Cloudy
5:53 PM 84.9 °F 89.4 °F 70.0 °F 61% 29.91 in 10.0 mi ENE 13.8 mph 25.3 mph 0.00 in Rain Light Rain
6:53 PM 84.0 °F 87.8 °F 69.1 °F 61% 29.92 in 10.0 mi ENE 13.8 mph - 0.00 in Rain Light Rain
7:53 PM 82.0 °F 86.3 °F 71.1 °F 69% 29.93 in 10.0 mi ENE 8.1 mph - 0.00 in   Clear
8:53 PM 81.0 °F 84.4 °F 70.0 °F 69% 29.94 in 10.0 mi East 12.7 mph - N/A   Clear
9:53 PM 80.1 °F 83.2 °F 70.0 °F 71% 29.97 in 10.0 mi ENE 8.1 mph - N/A   Clear
10:53 PM 78.1 °F - 70.0 °F 76% 29.99 in 10.0 mi ENE 9.2 mph - N/A   Clear
11:53 PM 77.0 °F - 70.0 °F 79% 29.98 in 10.0 mi ENE 6.9 mph - N/A   Clear